DW1814 Weather Reports


Display with metric or nautical units.
time (UTC)temp
F
wind
direction
speed
MPH
gust
MPH
rain 1hr
in
rain 24hr
in
rain mn
in
humidity
%
barometer
mb
20260505075319 55 0 6.0 12.0 0.00 0.00 0.00 44 1002.7
20260505074816 56 32 7.0 9.0 0.00 0.00 0.00 44 1002.5
20260505074313 56 8 8.0 12.0 0.00 0.00 0.00 44 1002.5
20260505073810 56 336 2.0 3.0 0.00 0.00 0.00 43 1002.5
20260505073308 56 6 2.0 4.0 0.00 0.00 0.00 42 1002.6
20260505072805 56 24 2.0 4.0 0.00 0.00 0.00 43 1002.6
20260505072301 56 47 2.0 3.0 0.00 0.00 0.00 42 1002.3
20260505071756 57 333 0.0 2.0 0.00 0.00 0.00 42 1002.5
20260505071253 57 35 3.0 3.0 0.00 0.00 0.00 40 1002.0
20260505070751 57 359 2.0 3.0 0.00 0.00 0.00 40 1002.0
20260505070247 57 3 2.0 4.0 0.00 0.00 0.00 41 1001.9
20260505065743 57 306 2.0 4.0 0.00 0.00 0.00 39 1001.5
20260505065240 58 13 1.0 3.0 0.00 0.00 0.00 38 1001.7
20260505064737 58 309 0.0 2.0 0.00 0.00 0.00 39 1001.6
20260505064235 58 342 2.0 4.0 0.00 0.00 0.00 38 1001.6
20260505063732 58 245 0.0 4.0 0.00 0.00 0.00 38 1001.6
20260505063228 58 32 4.0 4.0 0.00 0.00 0.00 39 1001.8
20260505062724 58 81 3.0 3.0 0.00 0.00 0.00 39 1001.9
20260505062222 59 156 0.0 2.0 0.00 0.00 0.00 39 1002.0
20260505061719 59 31 0.0 4.0 0.00 0.00 0.00 38 1001.8
20260505061217 59 238 1.0 1.0 0.00 0.00 0.00 37 1001.7
20260505060714 59 84 0.0 5.0 0.00 0.00 0.00 39 1001.4
20260505060211 59 46 2.0 2.0 0.00 0.00 0.00 38 1001.4
20260505055706 59 67 2.0 2.0 0.00 0.00 0.00 37 1001.3
20260505055203 59 52 2.0 2.0 0.00 0.00 0.00 36 1001.2
20260505054700 59 311 0.0 2.0 0.00 0.00 0.00 36 1001.2
20260505054158 60 44 0.0 3.0 0.00 0.00 0.00 36 1001.3
20260505053656 60 4 3.0 4.0 0.00 0.00 0.00 35 1001.2
20260505053152 60 71 0.0 3.0 0.00 0.00 0.00 35 1001.1
20260505052649 60 271 4.0 4.0 0.00 0.00 0.00 34 1001.3
20260505052146 60 10 4.0 4.0 0.00 0.00 0.00 35 1001.2
20260505051643 61 339 3.0 4.0 0.00 0.00 0.00 33 1001.1
20260505051142 61 323 2.0 4.0 0.00 0.00 0.00 33 1001.1
20260505050639 61 0 2.0 3.0 0.00 0.00 0.00 33 1000.9
20260505050137 61 283 0.0 2.0 0.00 0.00 0.00 33 1000.8
20260505041607 63 301 3.0 4.0 0.00 0.01 0.01 34 1000.3
20260505041104 63 299 2.0 4.0 0.00 0.01 0.01 35 1000.5
20260505040601 63 324 1.0 4.0 0.00 0.01 0.01 38 1000.2
20260505040058 64 355 2.0 6.0 0.00 0.01 0.01 38 1000.4
20260505035554 64 244 0.0 3.0 0.00 0.01 0.01 40 1000.1
20260505035051 64 268 4.0 4.0 0.00 0.01 0.01 41 1000.0
20260505034547 64 105 1.0 3.0 0.00 0.01 0.01 40 1000.0
20260505034044 63 303 2.0 4.0 0.00 0.01 0.01 41 999.8
20260505033541 62 28 3.0 3.0 0.00 0.01 0.01 49 999.7
20260505033040 62 42 3.0 3.0 0.00 0.01 0.01 57 999.4
20260505032537 61 52 1.0 3.0 0.00 0.01 0.01 62 999.8
20260505032033 62 64 2.0 2.0 0.00 0.01 0.01 66 999.7
20260505031531 62 83 1.0 2.0 0.00 0.01 0.01 65 999.4
20260505031027 62 77 2.0 2.0 0.00 0.01 0.01 64 999.5
20260505030524 63 129 0.0 2.0 0.00 0.01 0.01 64 999.5
20260505030020 63 130 1.0 2.0 0.00 0.01 0.01 64 999.5
20260505025516 64 89 0.0 1.0 0.00 0.01 0.01 63 999.4
20260505025015 64 89 0.0 1.0 0.00 0.01 0.01 62 999.5
20260505024511 64 222 0.0 2.0 0.00 0.01 0.01 61 999.3
20260505024009 65 157 0.0 2.0 0.00 0.01 0.01 61 999.4
20260505023505 65 150 0.0 4.0 0.00 0.01 0.01 61 999.1
20260505023003 64 127 1.0 2.0 0.00 0.01 0.01 60 999.0
20260505022501 64 98 0.0 2.0 0.00 0.01 0.01 61 998.9
20260505021958 64 267 1.0 2.0 0.00 0.01 0.01 63 998.8
20260505021454 64 104 0.0 2.0 0.00 0.01 0.01 63 998.6
20260505020950 64 282 1.0 1.0 0.00 0.01 0.01 63 998.2
20260505020445 64 130 0.0 2.0 0.00 0.01 0.01 64 998.3
20260505015942 64 86 0.0 1.0 0.00 0.01 0.01 65 998.2
20260505015439 65 336 0.0 2.0 0.00 0.01 0.01 65 998.2
20260505014937 65 286 0.0 2.0 0.00 0.01 0.01 65 997.8
20260505014433 65 162 2.0 3.0 0.00 0.01 0.01 66 997.8
20260505013930 65 84 1.0 3.0 0.00 0.01 0.01 66 997.4
20260505013428 65 103 0.0 2.0 0.00 0.01 0.01 67 997.3
20260505012925 65 185 0.0 2.0 0.00 0.01 0.01 66 997.3
20260505012423 66 269 0.0 2.0 0.00 0.01 0.01 66 997.4
20260505011919 66 148 2.0 4.0 0.00 0.01 0.01 65 997.5
20260505011416 66 174 2.0 3.0 0.00 0.01 0.01 65 997.3
20260505010912 66 170 2.0 4.0 0.00 0.01 0.01 64 997.2
20260505010408 66 187 3.0 4.0 0.00 0.01 0.01 62 997.4
20260505005904 67 176 1.0 3.0 0.00 0.01 0.01 59 997.5
20260505005401 67 166 2.0 2.0 0.00 0.01 0.01 57 997.4
20260505004859 67 125 1.0 2.0 0.00 0.01 0.01 58 997.2
20260505004355 67 159 0.0 2.0 0.00 0.01 0.01 55 996.8
20260505003852 68 190 1.0 2.0 0.00 0.01 0.01 55 996.3
20260505003350 68 159 1.0 3.0 0.00 0.01 0.01 55 996.4
20260505002845 68 154 1.0 2.0 0.00 0.01 0.01 54 996.1
20260505002342 69 158 2.0 3.0 0.00 0.01 0.01 51 996.4
20260505001841 70 151 2.0 3.0 0.00 0.01 0.01 49 996.2
20260505001338 71 269 0.0 3.0 0.00 0.01 0.01 46 996.2
20260505000835 72 211 0.0 2.0 0.00 0.01 0.01 43 996.0
20260505000332 72 137 1.0 2.0 0.00 0.01 0.01 42 996.0
20260504235829 72 194 0.0 3.0 0.00 0.01 0.01 40 995.8
20260504235326 72 248 2.0 4.0 0.00 0.01 0.01 39 996.1
20260504234823 73 178 1.0 3.0 0.00 0.01 0.01 39 996.2
20260504234320 73 260 0.0 2.0 0.00 0.01 0.01 39 995.9
20260504233816 73 256 0.0 2.0 0.00 0.01 0.01 40 996.0
20260504233312 73 173 0.0 4.0 0.00 0.01 0.01 40 995.9
20260504232809 73 298 1.0 4.0 0.00 0.01 0.01 40 996.1
20260504232307 73 186 0.0 4.0 0.00 0.01 0.01 39 996.1
20260504231803 72 339 0.0 3.0 0.00 0.01 0.01 40 996.1
20260504231300 71 288 0.0 2.0 0.00 0.01 0.01 44 996.4
20260504230755 69 271 2.0 6.0 0.00 0.01 0.01 46 996.3
20260504230254 69 281 3.0 14.0 0.00 0.01 0.01 51 996.9
20260504225752 69 151 2.0 4.0 0.00 0.01 0.01 48 996.8
20260504225248 68 181 1.0 9.0 0.00 0.01 0.01 49 997.3
20260504224746 67 197 0.0 5.0 0.00 0.01 0.01 53 996.7
20260504224243 67 294 2.0 4.0 0.00 0.01 0.01 54 997.0
20260504223739 66 189 0.0 3.0 0.00 0.01 0.01 66 997.8
20260504223235 68 5 2.0 3.0 0.07 0.01 0.01 62 996.9
20260504222732 71 10 0.0 4.0 0.07 0.01 0.01 55 996.7
20260504222229 77 311 7.0 15.0 0.00 0.00 0.00 35 997.4
20260504221726 78 240 2.0 4.0 0.00 0.00 0.00 30 996.6
20260504221223 79 242 1.0 3.0 0.00 0.00 0.00 29 996.5
20260504220720 80 249 1.0 9.0 0.00 0.00 0.00 28 996.7
20260504220217 80 271 2.0 6.0 0.00 0.00 0.00 28 996.6
20260504215714 78 304 0.0 4.0 0.00 0.00 0.00 30 996.5
20260504215211 79 264 1.0 4.0 0.00 0.00 0.00 29 996.5
20260504214706 80 193 0.0 10.0 0.00 0.00 0.00 31 996.7
20260504214203 80 225 3.0 6.0 0.00 0.00 0.00 29 996.6
20260504213700 80 243 0.0 4.0 0.00 0.00 0.00 29 996.9
20260504213156 80 177 1.0 2.0 0.00 0.00 0.00 29 996.7
20260504212653 79 237 4.0 7.0 0.00 0.00 0.00 28 996.6
20260504212149 79 266 2.0 3.0 0.00 0.00 0.00 29 996.9
20260504211647 78 154 0.0 1.0 0.00 0.00 0.00 27 997.0
20260504211143 79 251 1.0 5.0 0.00 0.00 0.00 27 997.0
20260504210641 79 278 1.0 4.0 0.00 0.00 0.00 26 996.9
20260504210137 79 218 1.0 3.0 0.00 0.00 0.00 26 997.1
20260504205635 79 265 0.0 7.0 0.00 0.00 0.00 25 996.9
20260504205132 80 50 1.0 5.0 0.00 0.00 0.00 25 997.2
20260504204631 80 240 1.0 4.0 0.00 0.00 0.00 25 997.2
20260504204129 80 309 3.0 9.0 0.00 0.00 0.00 25 997.3
20260504203627 80 54 4.0 9.0 0.00 0.00 0.00 28 997.1
20260504203125 80 271 3.0 5.0 0.00 0.00 0.00 25 997.3
20260504202625 80 310 3.0 4.0 0.00 0.00 0.00 29 997.3
20260504202122 80 177 4.0 6.0 0.00 0.00 0.00 26 997.4
20260504201619 80 261 3.0 7.0 0.00 0.00 0.00 25 997.2
20260504201117 79 259 2.0 13.0 0.00 0.00 0.00 26 997.5
20260504200614 79 254 4.0 6.0 0.00 0.00 0.00 25 997.7
20260504200110 80 275 3.0 6.0 0.00 0.00 0.00 25 997.7
20260504195606 81 296 6.0 7.0 0.00 0.00 0.00 24 997.9
20260504195057 80 255 1.0 4.0 0.00 0.00 0.00 24 997.9
20260504194554 80 205 3.0 4.0 0.00 0.00 0.00 26 997.9
20260504194050 80 256 2.0 6.0 0.00 0.00 0.00 26 998.2
20260504193546 80 299 4.0 10.0 0.00 0.00 0.00 26 998.2
20260504193045 81 295 1.0 5.0 0.00 0.00 0.00 25 998.5
20260504192543 80 236 2.0 12.0 0.00 0.00 0.00 25 998.4
20260504192041 80 216 2.0 9.0 0.00 0.00 0.00 27 998.5
20260504191538 80 255 4.0 6.0 0.00 0.00 0.00 24 998.3
20260504191034 81 162 1.0 5.0 0.00 0.00 0.00 29 998.2
20260504190531 80 290 2.0 4.0 0.00 0.00 0.00 26 998.2
20260504190027 80 211 3.0 4.0 0.00 0.00 0.00 26 998.3
20260504185525 79 266 5.0 8.0 0.00 0.00 0.00 29 998.3
20260504185021 78 245 2.0 4.0 0.00 0.00 0.00 29 998.4
20260504184516 78 246 4.0 6.0 0.00 0.00 0.00 27 998.6
20260504184012 78 269 4.0 5.0 0.00 0.00 0.00 27 998.5
20260504183509 79 254 4.0 9.0 0.00 0.00 0.00 28 998.5
20260504183008 78 197 0.0 5.0 0.00 0.00 0.00 30 998.6
20260504182504 78 275 0.0 7.0 0.00 0.00 0.00 29 998.4
20260504182001 79 185 2.0 9.0 0.00 0.00 0.00 29 998.6
20260504181458 79 286 3.0 4.0 0.00 0.00 0.00 31 998.5
20260504180956 78 264 3.0 4.0 0.00 0.00 0.00 28 998.6
20260504180455 78 280 6.0 6.0 0.00 0.00 0.00 27 998.7
20260504175953 78 266 2.0 4.0 0.00 0.00 0.00 30 998.6
20260504175450 77 198 3.0 6.0 0.00 0.00 0.00 29 998.6
20260504174947 78 300 5.0 9.0 0.00 0.00 0.00 29 999.2
20260504174445 78 302 3.0 4.0 0.00 0.00 0.00 33 998.7
20260504173942 78 203 0.0 3.0 0.00 0.00 0.00 31 999.0
20260504173437 77 297 1.0 4.0 0.00 0.00 0.00 33 999.1
20260504172936 77 204 3.0 4.0 0.00 0.00 0.00 30 998.9
20260504172431 77 275 2.0 9.0 0.00 0.00 0.00 30 999.2
20260504171928 76 284 5.0 7.0 0.00 0.00 0.00 31 999.4
20260504171426 76 167 4.0 4.0 0.00 0.00 0.00 34 999.4
20260504170922 76 260 4.0 4.0 0.00 0.00 0.00 34 999.4
20260504170418 76 229 1.0 5.0 0.00 0.00 0.00 33 999.7
20260504160338 75 268 2.0 7.0 0.00 0.00 0.00 35 1000.6
20260504150803 72 194 2.0 4.0 0.00 0.00 0.00 36 1001.2
20260504150259 72 236 2.0 3.0 0.00 0.00 0.00 39 1001.2
20260504141228 68 189 0.0 4.0 0.00 0.00 0.00 45 1001.8
20260504140725 68 155 2.0 2.0 0.00 0.00 0.00 45 1001.9
20260504140220 69 134 2.0 4.0 0.00 0.00 0.00 45 1001.7
20260504130649 62 115 1.0 2.0 0.00 0.00 0.00 55 1002.3
20260504130145 62 100 1.0 2.0 0.00 0.00 0.00 54 1002.4
20260504120110 51 130 2.0 2.0 0.00 0.00 0.00 76 1002.5
20260504110537 44 64 2.0 2.0 0.00 0.00 0.00 87 1002.2
20260504100459 45 79 2.0 2.0 0.00 0.00 0.00 85 1002.7
20260504081852 46 63 1.0 2.0 0.00 0.00 0.00 84 1002.4
20260504081349 47 72 1.0 3.0 0.00 0.00 0.00 84 1002.5
20260504080844 47 86 2.0 2.0 0.00 0.00 0.00 82 1002.4
20260504080342 47 74 2.0 2.0 0.00 0.00 0.00 82 1002.7